Weather History for Mildenhall RAF, United Kingdom

Change the Weather History Date:

Saturday, October 20, 2012

  Actual Average (EGSC) Record (EGSC)
Temperature  
Mean Temperature 51 °F -  
Max Temperature 55 °F 56 °F 62 °F (2001)
Min Temperature 47 °F 45 °F 32 °F (2007)
Degree Days  
Heating Degree Days 14    
Growing Degree Days 1 (Base 50)    
Moisture  
Dew Point 50 °F    
Average Humidity 99    
Maximum Humidity 100    
Minimum Humidity 91    
Precipitation  
Precipitation 0.16 in - - ()
Sea Level Pressure  
Sea Level Pressure 29.98 in    
Wind  
Wind Speed 6 mph ()    
Max Wind Speed 12 mph    
Max Gust Speed -    
Visibility 2.9 miles    
Events Fog , Rain    
Averages and records for this station are not official NWS values.
T = Trace of Precipitation, MM = Missing Value Source: Averaged Metar Reports

Daily Weather History Graph

Daily Weather History Graph

Search for Another Location

Airport:

Trip Planner

Search our weather history database for the weather conditions in past years. The results will help you decide how hot, cold, wet, or windy it might be!

Date:

Astronomy

Oct. 20, 2012 Rise Set
Actual Time 7:32 AM BST 5:51 PM BST
Civil Twilight 6:57 AM BST 6:26 PM BST
Nautical Twilight 6:18 AM BST 7:06 PM BST
Astronomical Twilight 5:38 AM BST 7:45 PM BST
Moon 1:20 PM BST (10/20) 9:57 PM BST (10/20)
Length of Visible Light 11h 28m
Length of Day
10h 19m
Waxing Crescent, 31% of the Moon is Illuminated
Oct 20
Waxing Crescent
Oct 22
First Quarter
Oct 29
Full
Nov 7
Last Quarter
Nov 13
New

Hourly Weather History & Observations

Time (BST) Temp. Dew Point Humidity Pressure Visibility Wind Dir Wind Speed Gust Speed Precip Events Conditions
12:09 AM 51.8 °F 51.8 °F 100% 29.79 in 5.0 mi NW 6.9 mph - N/A   Overcast
12:43 AM 51.8 °F 51.8 °F 100% 29.81 in 2.5 mi WNW 5.8 mph - N/A   Overcast
12:50 AM 51.8 °F 51.8 °F 100% 29.81 in - WNW 4.6 mph - N/A   Overcast
12:57 AM 51.8 °F 51.8 °F 100% 29.81 in 2.5 mi WNW 4.6 mph - N/A   Overcast
12:58 AM 51.8 °F 51.8 °F 100% 29.82 in 2.5 mi WNW 4.6 mph - N/A   Overcast
1:22 AM 51.8 °F 51.8 °F 100% 29.82 in 3.1 mi WNW 9.2 mph - N/A   Overcast
1:27 AM 51.8 °F 51.8 °F 100% 29.82 in 2.5 mi WNW 6.9 mph - N/A   Overcast
1:58 AM 51.1 °F 51.1 °F 100% 29.83 in 2.5 mi NW 5.8 mph - N/A   Overcast
2:08 AM 51.8 °F 51.8 °F 100% 29.82 in 3.1 mi WNW 5.8 mph - N/A   Overcast
2:58 AM 50.7 °F 50.7 °F 100% 29.86 in 3.7 mi WNW 5.8 mph - N/A   Overcast
3:10 AM 50.0 °F 50.0 °F 100% 29.85 in 5.0 mi West 3.5 mph - N/A   Overcast
3:31 AM 50.0 °F 50.0 °F 100% 29.86 in 3.7 mi West 4.6 mph - N/A   Overcast
3:49 AM 50.0 °F 50.0 °F 100% 29.86 in 5.0 mi WSW 2.3 mph - N/A   Overcast
3:52 AM 50.0 °F 50.0 °F 100% 29.86 in 3.7 mi WSW 2.3 mph - N/A   Overcast
3:56 AM 50.0 °F 50.0 °F 100% 29.86 in 5.0 mi WSW 3.5 mph - N/A   Overcast
3:57 AM 50.0 °F 50.0 °F 100% 29.86 in 5.0 mi WSW 3.5 mph - N/A   Overcast
3:58 AM 50.0 °F 50.0 °F 100% 29.87 in 5.0 mi WSW 3.5 mph - N/A   Overcast
4:04 AM 50.0 °F 50.0 °F 100% 29.86 in 5.0 mi WSW 5.8 mph - N/A   Overcast
4:05 AM 50.0 °F 50.0 °F 100% 29.86 in 5.0 mi WSW 5.8 mph - N/A   Overcast
4:09 AM 50.0 °F 50.0 °F 100% 29.87 in 3.7 mi WSW 5.8 mph - N/A   Overcast
4:21 AM 50.0 °F 50.0 °F 100% 29.87 in 5.0 mi WSW 4.6 mph - N/A   Overcast
4:34 AM 50.0 °F 50.0 °F 100% 29.87 in 5.0 mi West 3.5 mph - N/A   Overcast
4:41 AM 50.0 °F 50.0 °F 100% 29.88 in 5.0 mi WSW 4.6 mph - N/A   Overcast
4:45 AM 50.0 °F 50.0 °F 100% 29.88 in 5.0 mi WSW 5.8 mph - N/A   Overcast
4:47 AM 50.0 °F 50.0 °F 100% 29.88 in 5.0 mi WSW 6.9 mph - N/A   Overcast
4:50 AM 50.0 °F 50.0 °F 100% 29.89 in 5.0 mi WSW 6.9 mph - N/A   Overcast
4:54 AM 50.0 °F 50.0 °F 100% 29.89 in 5.0 mi WSW 6.9 mph - N/A   Overcast
4:56 AM 50.0 °F 50.0 °F 100% 29.89 in 5.0 mi WSW 8.1 mph - N/A   Overcast
4:57 AM 50.0 °F 50.0 °F 100% 29.89 in 5.0 mi WSW 8.1 mph - N/A   Overcast
4:58 AM 50.0 °F 50.0 °F 100% 29.90 in 5.0 mi WSW 8.1 mph - N/A   Overcast
5:00 AM 50.0 °F 50.0 °F 100% 29.89 in 5.0 mi WSW 8.1 mph - N/A   Overcast
5:05 AM 50.0 °F 50.0 °F 100% 29.89 in 5.0 mi WSW 6.9 mph - N/A   Overcast
5:08 AM 50.0 °F 50.0 °F 100% 29.90 in 5.0 mi WSW 6.9 mph - N/A   Overcast
5:24 AM 50.0 °F 50.0 °F 100% 29.89 in 5.0 mi WSW 5.8 mph - N/A   Mostly Cloudy
5:29 AM 50.0 °F 50.0 °F 100% 29.90 in 3.7 mi WSW 5.8 mph - N/A   Mostly Cloudy
5:33 AM 48.2 °F 48.2 °F 100% 29.90 in 3.7 mi WSW 5.8 mph - N/A   Scattered Clouds
5:58 AM 48.2 °F 48.2 °F 100% 29.92 in 3.7 mi WSW 9.2 mph - N/A   Scattered Clouds
5:59 AM 48.2 °F 48.2 °F 100% 29.91 in 3.1 mi WSW 9.2 mph - N/A   Mostly Cloudy
6:01 AM 48.2 °F 48.2 °F 100% 29.91 in 2.5 mi WSW 8.1 mph - N/A   Mostly Cloudy
6:02 AM 48.2 °F 48.2 °F 100% 29.91 in - WSW 9.2 mph - N/A   Mostly Cloudy
6:03 AM 48.2 °F 48.2 °F 100% 29.90 in 1.7 mi WSW 10.4 mph - N/A   Mostly Cloudy
6:04 AM 48.2 °F 48.2 °F 100% 29.91 in 1.5 mi WSW 10.4 mph - N/A   Mostly Cloudy
6:05 AM 48.2 °F 48.2 °F 100% 29.91 in 1.2 mi WSW 10.4 mph - N/A   Mostly Cloudy
6:06 AM 48.2 °F 48.2 °F 100% 29.91 in 1.0 mi WSW 9.2 mph - N/A   Mostly Cloudy
6:07 AM 48.2 °F 48.2 °F 100% 29.91 in 1.0 mi WSW 8.1 mph - N/A   Mostly Cloudy
6:09 AM 48.2 °F 48.2 °F 100% 29.91 in 0.7 mi WSW 5.8 mph - N/A   Mist
6:10 AM 48.2 °F 48.2 °F 100% 29.91 in 0.7 mi WSW 5.8 mph - N/A   Mist
6:16 AM 48.2 °F 48.2 °F 100% 29.91 in 0.7 mi WSW 8.1 mph - N/A   Overcast
6:18 AM 48.2 °F 48.2 °F 100% 29.91 in 0.7 mi SW 8.1 mph - N/A   Overcast
6:31 AM 48.2 °F 48.2 °F 100% 29.92 in 0.5 mi WSW 8.1 mph - N/A Fog Fog
6:57 AM 48.2 °F 48.2 °F 100% 29.93 in 0.7 mi SW 6.9 mph - N/A   Mist
6:58 AM 48.2 °F 48.2 °F 100% 29.94 in 0.7 mi SW 6.9 mph - N/A   Mist
7:02 AM 48.2 °F 48.2 °F 100% 29.94 in 0.7 mi SW 6.9 mph - N/A   Mist
7:09 AM 48.2 °F 48.2 °F 100% 29.94 in 0.7 mi SSW 9.2 mph - N/A   Mist
7:23 AM 48.2 °F 48.2 °F 100% 29.94 in 0.7 mi SW 8.1 mph - N/A   Mist
7:24 AM 48.2 °F 48.2 °F 100% 29.94 in 0.5 mi SW 8.1 mph - N/A Fog Fog
7:28 AM 48.2 °F 48.2 °F 100% 29.94 in 0.5 mi SW 9.2 mph - N/A Fog Fog
7:31 AM 48.2 °F 48.2 °F 100% 29.95 in 0.7 mi SW 10.4 mph - N/A   Overcast
7:32 AM 48.2 °F 48.2 °F 100% 29.95 in 0.7 mi SW 10.4 mph - N/A   Overcast
7:33 AM 48.2 °F 48.2 °F 100% 29.95 in 1.0 mi SW 11.5 mph - N/A   Overcast
7:35 AM 48.2 °F 48.2 °F 100% 29.95 in 1.2 mi SW 10.4 mph - N/A   Overcast
7:36 AM 48.2 °F 48.2 °F 100% 29.95 in 1.5 mi SW 9.2 mph - N/A   Overcast
7:37 AM 48.2 °F 48.2 °F 100% 29.95 in 1.7 mi SW 9.2 mph - N/A   Overcast
7:38 AM 48.2 °F 48.2 °F 100% 29.95 in - SW 8.1 mph - N/A   Overcast
7:45 AM 48.2 °F 48.2 °F 100% 29.96 in 1.7 mi SW 10.4 mph - N/A   Overcast
7:47 AM 48.2 °F 48.2 °F 100% 29.96 in 1.5 mi SW 8.1 mph - N/A   Overcast
7:50 AM 48.2 °F 48.2 °F 100% 29.96 in 1.2 mi WSW 8.1 mph - N/A   Overcast
7:55 AM 48.2 °F 48.2 °F 100% 29.96 in 1.5 mi WSW 8.1 mph - N/A   Overcast
7:58 AM 47.8 °F 47.8 °F 100% 29.97 in 1.5 mi WSW 8.1 mph - N/A   Overcast
8:01 AM 48.2 °F 48.2 °F 100% 29.97 in 1.7 mi WSW 8.1 mph - N/A   Overcast
8:02 AM 48.2 °F 48.2 °F 100% 29.96 in 1.5 mi WSW 8.1 mph - N/A   Overcast
8:04 AM 48.2 °F 48.2 °F 100% 29.96 in 1.2 mi SW 8.1 mph - N/A   Overcast
8:07 AM 48.2 °F 48.2 °F 100% 29.97 in 1.0 mi SW 5.8 mph - N/A   Overcast
8:10 AM 48.2 °F 48.2 °F 100% 29.96 in 1.0 mi SW 8.1 mph - N/A   Overcast
8:12 AM 48.2 °F 48.2 °F 100% 29.96 in 0.7 mi SW 6.9 mph - N/A   Overcast
8:16 AM 48.2 °F 48.2 °F 100% 29.97 in 0.7 mi SW 6.9 mph - N/A   Overcast
8:23 AM 48.2 °F 48.2 °F 100% 29.97 in 0.5 mi SW 6.9 mph - N/A Fog Fog
8:48 AM 48.2 °F 48.2 °F 100% 29.98 in 0.7 mi SSW 6.9 mph - N/A   Overcast
8:58 AM 48.2 °F 48.2 °F 100% 30.00 in 0.7 mi SW 8.1 mph - N/A   Overcast
9:01 AM 48.2 °F 48.2 °F 100% 29.99 in 1.0 mi SW 8.1 mph - N/A   Overcast
9:03 AM 48.2 °F 48.2 °F 100% 29.99 in 1.2 mi SW 9.2 mph - N/A   Overcast
9:05 AM 48.2 °F 48.2 °F 100% 29.99 in 1.5 mi SW 9.2 mph - N/A   Overcast
9:06 AM 48.2 °F 48.2 °F 100% 29.99 in 1.7 mi SW 8.1 mph - N/A   Overcast
9:07 AM 48.2 °F 48.2 °F 100% 29.99 in - SW 6.9 mph - N/A   Overcast
9:09 AM 48.2 °F 48.2 °F 100% 29.99 in 2.5 mi SW 6.9 mph - N/A   Overcast
9:11 AM 48.2 °F 48.2 °F 100% 29.99 in 3.1 mi SW 8.1 mph - N/A   Overcast
9:40 AM 48.2 °F 48.2 °F 100% 30.00 in 5.6 mi SW 6.9 mph - N/A   Overcast
9:58 AM 48.9 °F 48.9 °F 100% 30.02 in 5.6 mi SW 9.2 mph - N/A   Overcast
10:19 AM 50.0 °F 50.0 °F 100% 30.03 in 6.2 mi SW 10.4 mph - N/A   Overcast
10:58 AM 50.0 °F 50.0 °F 100% 30.04 in 6.2 mi SW 5.8 mph - N/A   Overcast
11:14 AM 50.0 °F 50.0 °F 100% 30.03 in 6.2 mi SW 5.8 mph - N/A   Overcast
11:45 AM 51.8 °F 51.8 °F 100% 30.03 in 6.2 mi SW 5.8 mph - N/A   Overcast
11:56 AM 51.8 °F 51.8 °F 100% 30.04 in 6.2 mi West 9.2 mph - N/A   Overcast
11:58 AM 52.0 °F 52.0 °F 100% 30.05 in 6.2 mi WSW 8.1 mph - N/A   Overcast
12:20 PM 51.8 °F 51.8 °F 100% 30.04 in 6.2 mi WSW 4.6 mph - N/A   Overcast
12:27 PM 51.8 °F 51.8 °F 100% 30.04 in 6.2 mi West 5.8 mph - N/A   Overcast
12:41 PM 51.8 °F 51.8 °F 100% 30.04 in 6.2 mi WSW 5.8 mph - N/A   Overcast
12:58 PM 53.1 °F 53.1 °F 100% 30.05 in 6.2 mi SW 4.6 mph - N/A   Overcast
1:23 PM 55.4 °F 53.6 °F 94% 30.04 in 6.2 mi WSW 5.8 mph - N/A   Scattered Clouds
1:58 PM 55.6 °F 53.1 °F 91% 30.04 in 6.2 mi WSW 5.8 mph - N/A   Clear
2:58 PM 55.4 °F 53.2 °F 92% 30.04 in 6.2 mi West 3.5 mph - N/A   Scattered Clouds
3:58 PM 55.4 °F 53.6 °F 94% 30.04 in 6.2 mi SSE 2.3 mph - N/A   Scattered Clouds
4:36 PM 55.4 °F 53.6 °F 94% 30.04 in 2.5 mi East 1.2 mph - N/A   Scattered Clouds
4:37 PM 55.4 °F 53.6 °F 94% 30.04 in 3.1 mi SSE 1.2 mph - N/A   Scattered Clouds
4:58 PM 54.7 °F 53.4 °F 96% 30.05 in 3.7 mi Calm Calm - N/A   Mostly Cloudy
5:02 PM 55.4 °F 53.6 °F 94% 30.04 in 2.5 mi SE 1.2 mph - N/A   Mostly Cloudy
5:03 PM 55.4 °F 53.6 °F 94% 30.04 in - ESE 1.2 mph - N/A   Mostly Cloudy
5:05 PM 55.4 °F 53.6 °F 94% 30.04 in 1.7 mi Calm Calm - N/A   Mostly Cloudy
5:08 PM 55.4 °F 53.6 °F 94% 30.04 in 1.5 mi Calm Calm - N/A   Mostly Cloudy
5:11 PM 55.4 °F 53.6 °F 94% 30.05 in 1.7 mi Calm Calm - N/A   Overcast
5:13 PM 55.4 °F 53.6 °F 94% 30.05 in - Calm Calm - N/A   Overcast
5:15 PM 55.4 °F 53.6 °F 94% 30.05 in 2.5 mi Calm Calm - N/A   Overcast
5:18 PM 55.4 °F 53.6 °F 94% 30.05 in - East 2.3 mph - N/A   Overcast
5:22 PM 53.6 °F 53.6 °F 100% 30.05 in 1.7 mi East 2.3 mph - N/A   Overcast
5:25 PM 53.6 °F 53.6 °F 100% 30.05 in 1.5 mi East 1.2 mph - N/A   Overcast
5:49 PM 53.6 °F 53.6 °F 100% 30.06 in 1.7 mi Calm Calm - N/A   Overcast
5:58 PM 53.8 °F 53.8 °F 100% 30.07 in 1.7 mi Calm Calm - N/A   Overcast
6:12 PM 53.6 °F 53.6 °F 100% 30.06 in - Calm Calm - N/A   Mostly Cloudy
6:16 PM 53.6 °F 53.6 °F 100% 30.07 in 2.5 mi Calm Calm - N/A   Mostly Cloudy
6:19 PM 53.6 °F 53.6 °F 100% 30.08 in 3.1 mi Calm Calm - N/A   Overcast
6:28 PM 53.6 °F 53.6 °F 100% 30.07 in 2.5 mi East 3.5 mph - N/A   Overcast
6:49 PM 51.8 °F 51.8 °F 100% 30.07 in - East 2.3 mph - N/A   Mostly Cloudy
6:56 PM 51.8 °F 51.8 °F 100% 30.08 in 2.5 mi ENE 2.3 mph - N/A   Mostly Cloudy
6:58 PM 51.3 °F 51.3 °F 100% 30.09 in 2.5 mi ENE 2.3 mph - N/A   Mostly Cloudy
6:59 PM 51.8 °F 51.8 °F 100% 30.08 in 3.1 mi ENE 2.3 mph - N/A   Mostly Cloudy
7:21 PM 51.8 °F 51.8 °F 100% 30.08 in 2.5 mi East 4.6 mph - N/A   Overcast
7:25 PM 51.8 °F 51.8 °F 100% 30.08 in - East 4.6 mph - N/A   Overcast
7:31 PM 51.8 °F 51.8 °F 100% 30.08 in 1.7 mi East 3.5 mph - N/A   Overcast
7:39 PM 51.8 °F 51.8 °F 100% 30.07 in - East 3.5 mph - N/A   Overcast
7:58 PM 51.6 °F 51.6 °F 100% 30.08 in - ENE 2.3 mph - N/A   Partly Cloudy
8:22 PM 51.8 °F 51.8 °F 100% 30.08 in 2.5 mi NNE 1.2 mph - N/A   Scattered Clouds
8:32 PM 51.8 °F 51.8 °F 100% 30.08 in - East 2.3 mph - N/A   Partly Cloudy
8:33 PM 51.8 °F 51.8 °F 100% 30.08 in - East 2.3 mph - N/A Rain Light Rain
8:47 PM 51.8 °F 51.8 °F 100% 30.08 in 1.7 mi East 2.3 mph - N/A Rain Light Rain
8:58 PM 51.1 °F 51.1 °F 100% 30.09 in 1.7 mi East 2.3 mph - 0.01 in Rain Light Rain
9:44 PM 51.8 °F 51.8 °F 100% 30.10 in 1.7 mi SSE 2.3 mph - N/A Rain Light Rain
9:50 PM 51.8 °F 51.8 °F 100% 30.10 in - SSE 2.3 mph - N/A Rain Light Rain
9:58 PM 51.4 °F 51.4 °F 100% 30.11 in - SE 3.5 mph - 0.03 in Rain Light Rain
10:02 PM 51.8 °F 51.8 °F 100% 30.09 in 1.7 mi ESE 3.5 mph - N/A Rain Light Rain
10:14 PM 51.8 °F 51.8 °F 100% 30.09 in 1.7 mi ESE 3.5 mph - N/A Rain Light Rain
10:47 PM 51.8 °F 51.8 °F 100% 30.09 in - SSE 3.5 mph - N/A Rain Light Rain
10:51 PM 51.8 °F 51.8 °F 100% 30.09 in 2.5 mi SSE 3.5 mph - N/A Rain Light Rain
10:55 PM 51.8 °F 51.8 °F 100% 30.09 in 3.1 mi SSE 4.6 mph - N/A Rain Light Rain
10:58 PM 51.8 °F 51.8 °F 100% 30.10 in 3.1 mi SSE 4.6 mph - 0.04 in Rain Light Rain
11:09 PM 51.8 °F 51.8 °F 100% 30.09 in 3.1 mi SSE 3.5 mph - N/A Rain Light Rain
11:10 PM 51.8 °F 51.8 °F 100% 30.09 in 3.1 mi SSE 4.6 mph - N/A Rain Light Rain
11:12 PM 51.8 °F 51.8 °F 100% 30.09 in 3.1 mi SSE 4.6 mph - N/A Rain Light Rain
11:40 PM 51.8 °F 51.8 °F 100% 30.09 in 2.5 mi SSE 2.3 mph - N/A Rain Light Rain
11:51 PM 51.8 °F 51.8 °F 100% 30.10 in 3.1 mi SSE 3.5 mph - N/A Rain Light Rain
11:54 PM 51.8 °F 51.8 °F 100% 30.10 in 3.1 mi SE 3.5 mph - N/A Rain Light Rain
11:58 PM 51.4 °F 51.4 °F 100% 30.11 in 3.1 mi SE 3.5 mph - 0.08 in Rain Light Rain
11:59 PM 51.8 °F 51.8 °F 100% 30.10 in 2.5 mi SSE 3.5 mph - N/A Rain Light Rain